Hourly Data Report for September 20, 2020

TORONTO CITY
ONTARIO
Current Station Operator: ECCC - MSC

43°40'00.000" N
79°24'00.000" W
112.50 m
6158355
71508
XTO

Download Data

Hourly Data (September 2020)
Hourly Data Report for September 20, 2020
TIME
LST
Temp Definition
°C
Dew Point Definition
°C
Rel Hum Definition
%
Precip. Amount Definition
mm

Wind Dir Definition
10's deg

Wind Spd Definition
km/h
Visibility Definition
km
Stn Press Definition
kPa
Hmdx Definition


Wind Chill Definition


Weather Definition


00:00 12.5 -3.3 33 0.0       101.77     LegendNANA
01:00 12.3 -2.5 36 0.0       101.79     LegendNANA
02:00 12.2 -2.3 36 0.0       101.81     LegendNANA
03:00 11.8 -0.9 41 0.0       101.84     LegendNANA
04:00 10.6 1.2 52 0.0       101.88     LegendNANA
05:00 9.6 2.2 60 0.0       101.94     LegendNANA
06:00 10.3 2.6 59 0.0       101.99     LegendNANA
07:00 10.9 2.9 58 0.0       102.06     LegendNANA
08:00 12.5 2.7 51 0.0       102.11     LegendNANA
09:00 12.8 2.4 49 0.0       102.17     LegendNANA
10:00 14.2 3.6 49 0.0       102.18     LegendNANA
11:00 14.7 2.7 44 0.0       102.22     LegendNANA
12:00 15.8 2.7 42 0.3       102.22     LegendNANA
13:00 15.3 2.2 41 0.3       102.20     LegendNANA
14:00 15.9 2.3 40 0.3       102.15     LegendNANA
15:00 15.7 1.7 39 0.0       102.11     LegendNANA
16:00 15.0 0.7 38 0.3       102.05     LegendNANA
17:00 14.5 0.4 38 0.0       102.05     LegendNANA
18:00 13.9 1.2 42 0.0       102.06     LegendNANA
19:00 13.4 2.0 46 0.0       102.09     LegendNANA
20:00 13.7 2.8 48 0.0       102.10     LegendNANA
21:00 12.5 3.0 52 0.0       102.09     LegendNANA
22:00 11.6 3.3 57 0.0       102.08     LegendNANA
23:00 11.6 2.7 55 0.0       102.06     LegendNANA

Notes on Data Quality.

Legend

  • E = Estimated
  • M = Missing
  • NA = Not Available*
  • [empty] = Indicates an unobserved value
Date modified: